Overview Statistics Trail Chart Weather Telemetry Raw packets
 

This is the latest recevied weather packets stored in our database for station/object NO9B. If no packets are shown the sender has not sent any weather packets the latest 10 day(s).

<< 40 41 42 43 44 45 46 >>
Time Temp. Humidity Pressure Rain* Wind** Luminosity Snow
1788389937 30.56° C 77% 1013.6 hPa 0 mm - 31 W/m² -
1788389633 30.56° C 78% 1013.7 hPa 0 mm - 36 W/m² -
1788389332 30.56° C 76% 1013.6 hPa 0 mm - 36 W/m² -
1788389032 30.56° C 75% 1013.6 hPa 0 mm - 31 W/m² -
1788388729 30.56° C 77% 1013.6 hPa 0 mm - 43 W/m² -
1788388428 31.11° C 74% 1013.7 hPa 0 mm - 54 W/m² -
1788388123 31.11° C 75% 1013.8 hPa 0 mm - 46 W/m² -
1788387821 31.11° C 73% 1013.7 hPa 0 mm - 48 W/m² -
1788387516 31.11° C 73% 1013.7 hPa 0 mm - 54 W/m² -
1788387215 31.67° C 71% 1014 hPa 0 mm - 57 W/m² -
1788386911 31.67° C 71% 1013.9 hPa 0 mm - 57 W/m² -
1788386610 31.67° C 71% 1013.8 hPa 0 mm - 64 W/m² -
1788386307 31.67° C 69% 1013.6 hPa 0 mm - 75 W/m² -
1788386006 31.67° C 68% 1014 hPa 0 mm - 178 W/m² -
1788385703 31.67° C 70% 1013.7 hPa 0 mm - 103 W/m² -
1788385401 31.11° C 68% 1013.8 hPa 0 mm - 135 W/m² -
1788385097 31.11° C 69% 1014 hPa 0 mm - 81 W/m² -
1788384792 31.67° C 69% 1014.1 hPa 0 mm - 70 W/m² -
1788384491 31.67° C 69% 1013.9 hPa 0 mm - 51 W/m² -
1788384203 32.22° C 66% 1013.8 hPa 0 mm - 66 W/m² -
1788383884 32.22° C 67% 1013.8 hPa 0 mm - 87 W/m² -
1788383580 32.22° C 64% 1013.7 hPa 0 mm - 127 W/m² -
1788383279 32.22° C 63% 1013.9 hPa 0 mm - 213 W/m² -
1788382974 32.22° C 63% 1013.9 hPa 0 mm - 278 W/m² -
1788382672 31.67° C 64% 1014 hPa 0 mm - 227 W/m² -

* Rain latest hour (hover to see other rain measurements)
** Current wind speed in m/s (hover to see current wind gust speed)